Flag for Austria Weather past 2 weeks in Ternitz, Lower Austria, Austria

Now
44 °F

Passing clouds.


Feels Like: 42 °F
Forecast: 43 / 73 °F
Wind: 3 mph from Northwest

Location: Eisenstadt

Current Time: May 28, 2015 at 5:18:51 AM

Latest Report: May 28, 2015 at 2:00 AM


Visibility: 16 mi

Pressure: 30.12 "Hg

Humidity: 81%

Dew point: 38 °F

Location of TernitzLocation

Historic Weather in Ternitz — Graph

°F

Ternitz temperature yesterday

Maximum temperature yesterday: 59 °F (at 1:00 PM)
Minimum temperature yesterday: 49 °F (at 11:00 PM)
Average temperature yesterday: 55 °F

Past Weeks' High & Low Weather Summary

 TemperatureHumidityPressure
High75 °F (May 19, 12:00 PM)95% (May 16, 12:00 AM)30.23 "Hg (May 16, 12:00 AM)
Low44 °F (May 28, 2:00 AM)42% (May 16, 5:00 PM)29.73 "Hg (May 19, 6:00 AM)
Average59 °F73%29.96 "Hg
* Reported May 13 2:00 AM — May 28 2:00 AM, Ternitz, Weather by CustomWeather, © 2015

Note: Actual official high and low records may vary slightly from our data, if they occured in-between our weather recording intervals... More about our weather records

Advertising

Ternitz weather history for previous 24 hours

 ConditionsComfort  
Time TempWeatherWind HumidityBarometerVisibility
2:00 AM
Thu, May 28
44 °FPassing clouds.3 mph81%30.12 "Hg16 mi
1:00 AM44 °FQuite cool.1 mph83%30.13 "HgN/A
12:00 AM46 °FCool.2 mph78%30.13 "HgN/A
11:00 PM
Wed, May 27
49 °FPassing clouds.2 mph69%30.12 "Hg16 mi
10:00 PM52 °FCool.1 mph59%30.11 "HgN/A
9:00 PM54 °FCool.2 mph55%30.09 "HgN/A
8:00 PM56 °FOvercast.3 mph56%30.07 "Hg9 mi
7:00 PM57 °FPartly sunny.5 mph55%30.05 "Hg12 mi
6:00 PM57 °FRefreshingly cool.5 mph59%30.06 "HgN/A
5:00 PM56 °FRefreshingly cool.5 mph55%30.06 "HgN/A
4:00 PM55 °FCool.5 mph55%30.07 "HgN/A
3:00 PM57 °FRefreshingly cool.5 mph55%30.07 "HgN/A
2:00 PM55 °FOvercast.6 mph61%30.08 "Hg12 mi
1:00 PM59 °FRefreshingly cool.6 mph50%30.06 "HgN/A
12:00 PM58 °FRefreshingly cool.7 mph52%30.05 "HgN/A
11:00 AM59 °FScattered clouds.7 mph52%30.04 "Hg12 mi
10:00 AM58 °FRefreshingly cool.7 mph56%30.04 "HgN/A
9:00 AM56 °FCool.6 mph60%30.04 "HgN/A
8:00 AM54 °FPassing clouds.5 mph62%30.04 "Hg16 mi
7:00 AM52 °FScattered clouds.3 mph66%30.03 "Hg16 mi
6:00 AM51 °FPartly sunny.3 mph69%30.02 "Hg19 mi
Weather by CustomWeather, © 2015

See weather overviewHow to use our weather pages